Time,TemperatureF,DewpointF,PressureIn,WindDirection,WindDirectionDegrees,WindSpeedMPH,WindSpeedGustMPH,Humidity,HourlyPrecipIn,Conditions,Clouds,dailyrainin,SoftwareType,DateUTC
2013-02-03 00:01:00,44.0,42.0,30.23,SE,136,0.0,0.0,94,0.00,,,0.00,,2013-02-03 08:01:00,
2013-02-03 00:11:00,44.0,42.0,30.23,SE,136,0.0,0.0,94,0.00,,,0.00,,2013-02-03 08:11:00,
2013-02-03 00:22:00,44.0,42.0,30.23,SE,136,0.0,0.0,94,0.00,,,0.00,,2013-02-03 08:22:00,
2013-02-03 00:32:00,44.0,43.0,30.23,SE,136,0.0,0.0,95,0.00,,,0.00,,2013-02-03 08:32:00,
2013-02-03 00:41:00,44.0,43.0,30.23,SE,136,0.0,0.0,95,0.00,,,0.00,,2013-02-03 08:41:00,
2013-02-03 00:52:00,44.0,43.0,30.23,SE,136,0.0,1.0,96,0.00,,,0.00,,2013-02-03 08:52:00,
2013-02-03 01:02:00,45.0,44.0,30.22,SE,136,0.0,0.0,96,0.00,,,0.00,,2013-02-03 09:02:00,
2013-02-03 01:11:00,45.0,44.0,30.22,SE,136,0.0,0.0,96,0.00,,,0.00,,2013-02-03 09:11:00,
2013-02-03 01:21:00,45.0,44.0,30.23,SE,136,0.0,1.0,96,0.00,,,0.00,,2013-02-03 09:21:00,
2013-02-03 01:31:00,45.0,44.0,30.22,SE,136,1.0,1.0,96,0.00,,,0.00,,2013-02-03 09:31:00,
2013-02-03 01:41:00,45.0,44.0,30.22,SE,136,1.0,1.0,96,0.00,,,0.00,,2013-02-03 09:41:00,
2013-02-03 01:52:00,45.0,44.0,30.23,SE,136,0.0,1.0,96,0.00,,,0.00,,2013-02-03 09:52:00,
2013-02-03 02:01:00,45.0,44.0,30.23,SSE,154,0.0,2.0,96,0.00,,,0.00,,2013-02-03 10:01:00,
2013-02-03 02:11:00,45.0,44.0,30.23,SSE,154,0.0,2.0,96,0.00,,,0.00,,2013-02-03 10:11:00,
2013-02-03 02:21:00,44.0,43.0,30.23,SSE,154,0.0,1.0,96,0.00,,,0.00,,2013-02-03 10:21:00,
2013-02-03 02:31:00,44.0,43.0,30.23,SSE,154,0.0,1.0,96,0.00,,,0.00,,2013-02-03 10:31:00,
2013-02-03 02:41:00,44.0,43.0,30.23,SSE,154,0.0,1.0,96,0.00,,,0.00,,2013-02-03 10:41:00,
2013-02-03 02:52:00,44.0,43.0,30.23,SSE,154,0.0,1.0,96,0.00,,,0.00,,2013-02-03 10:52:00,
2013-02-03 03:01:00,44.0,43.0,30.24,SSE,154,0.0,1.0,96,0.00,,,0.00,,2013-02-03 11:01:00,
2013-02-03 03:11:00,44.0,43.0,30.24,SSE,154,0.0,1.0,96,0.00,,,0.00,,2013-02-03 11:11:00,
2013-02-03 03:22:00,44.0,43.0,30.23,SSE,154,0.0,1.0,96,0.00,,,0.00,,2013-02-03 11:22:00,
2013-02-03 03:31:00,44.0,43.0,30.22,SSE,154,0.0,1.0,97,0.00,,,0.00,,2013-02-03 11:31:00,
2013-02-03 03:41:00,44.0,43.0,30.22,SSE,154,0.0,1.0,97,0.00,,,0.00,,2013-02-03 11:41:00,
2013-02-03 03:52:00,44.0,43.0,30.22,SSE,154,0.0,0.0,96,0.00,,,0.00,,2013-02-03 11:52:00,
2013-02-03 04:02:00,44.0,43.0,30.22,SSE,154,0.0,0.0,97,0.00,,,0.00,,2013-02-03 12:02:00,
2013-02-03 04:11:00,44.0,43.0,30.22,SSE,154,0.0,0.0,97,0.00,,,0.00,,2013-02-03 12:11:00,
2013-02-03 04:21:00,44.0,43.0,30.22,SSE,154,0.0,0.0,97,0.00,,,0.00,,2013-02-03 12:21:00,
2013-02-03 04:32:00,44.0,43.0,30.22,SSE,154,0.0,0.0,97,0.00,,,0.00,,2013-02-03 12:32:00,
2013-02-03 04:42:00,44.0,43.0,30.22,SSE,154,0.0,0.0,97,0.00,,,0.00,,2013-02-03 12:42:00,
2013-02-03 04:53:00,44.0,43.0,30.22,SSE,154,0.0,1.0,97,0.00,,,0.00,,2013-02-03 12:53:00,
2013-02-03 05:02:00,44.0,43.0,30.21,SSE,154,0.0,2.0,97,0.00,,,0.00,,2013-02-03 13:02:00,
2013-02-03 05:11:00,44.0,43.0,30.21,SSE,154,0.0,2.0,97,0.00,,,0.00,,2013-02-03 13:11:00,
2013-02-03 05:21:00,44.0,43.0,30.21,SSE,154,0.0,0.0,97,0.00,,,0.00,,2013-02-03 13:21:00,
2013-02-03 05:32:00,44.0,43.0,30.21,SSE,154,0.0,0.0,97,0.00,,,0.00,,2013-02-03 13:32:00,
2013-02-03 05:41:00,44.0,43.0,30.21,SSE,154,0.0,0.0,97,0.00,,,0.00,,2013-02-03 13:41:00,
2013-02-03 05:52:00,45.0,44.0,30.22,SSE,154,0.0,1.0,97,0.00,,,0.00,,2013-02-03 13:52:00,
2013-02-03 06:02:00,45.0,44.0,30.21,SW,222,0.0,1.0,97,0.01,,,0.01,,2013-02-03 14:02:00,
2013-02-03 06:11:00,45.0,44.0,30.21,SW,222,0.0,1.0,97,0.01,,,0.01,,2013-02-03 14:11:00,
2013-02-03 06:21:00,45.0,44.0,30.21,SW,222,0.0,1.0,97,0.01,,,0.01,,2013-02-03 14:21:00,
2013-02-03 06:31:00,44.0,43.0,30.20,SW,222,0.0,0.0,97,0.01,,,0.01,,2013-02-03 14:31:00,
2013-02-03 06:42:00,44.0,43.0,30.20,SW,222,0.0,0.0,97,0.01,,,0.01,,2013-02-03 14:42:00,
2013-02-03 06:52:00,44.0,43.0,30.21,SW,222,0.0,0.0,97,0.01,,,0.01,,2013-02-03 14:52:00,
2013-02-03 07:02:00,45.0,44.0,30.21,SW,222,0.0,0.0,97,0.00,,,0.01,,2013-02-03 15:02:00,
2013-02-03 07:11:00,45.0,44.0,30.21,SW,222,0.0,0.0,97,0.00,,,0.01,,2013-02-03 15:11:00,
2013-02-03 07:21:00,45.0,44.0,30.22,SW,222,0.0,0.0,97,0.00,,,0.01,,2013-02-03 15:21:00,
2013-02-03 07:32:00,44.0,43.0,30.22,SW,222,0.0,1.0,97,0.00,,,0.01,,2013-02-03 15:32:00,
2013-02-03 07:41:00,44.0,43.0,30.22,SW,222,0.0,1.0,97,0.00,,,0.01,,2013-02-03 15:41:00,
2013-02-03 07:52:00,44.0,43.0,30.22,SW,222,0.0,1.0,97,0.00,,,0.01,,2013-02-03 15:52:00,
2013-02-03 08:02:00,44.0,43.0,30.23,SW,222,0.0,1.0,97,0.00,,,0.01,,2013-02-03 16:02:00,
2013-02-03 08:11:00,44.0,43.0,30.23,SW,222,0.0,1.0,97,0.00,,,0.01,,2013-02-03 16:11:00,
2013-02-03 08:21:00,44.0,43.0,30.23,SW,222,0.0,0.0,97,0.00,,,0.01,,2013-02-03 16:21:00,
2013-02-03 08:32:00,45.0,44.0,30.23,SW,222,0.0,1.0,97,0.00,,,0.01,,2013-02-03 16:32:00,
2013-02-03 08:41:00,45.0,44.0,30.23,SW,222,0.0,1.0,97,0.00,,,0.01,,2013-02-03 16:41:00,
2013-02-03 08:52:00,45.0,44.0,30.24,SW,221,1.0,2.0,97,0.00,,,0.01,,2013-02-03 16:52:00,
2013-02-03 09:02:00,45.0,44.0,30.24,SW,221,0.0,2.0,97,0.00,,,0.01,,2013-02-03 17:02:00,
2013-02-03 09:11:00,45.0,44.0,30.24,SW,221,0.0,2.0,97,0.00,,,0.01,,2013-02-03 17:11:00,
2013-02-03 09:21:00,44.0,43.0,30.24,SW,230,1.0,3.0,97,0.00,,,0.01,,2013-02-03 17:21:00,
2013-02-03 09:31:00,45.0,44.0,30.24,SW,229,0.0,1.0,97,0.00,,,0.01,,2013-02-03 17:31:00,
2013-02-03 09:41:00,45.0,44.0,30.24,SW,229,0.0,1.0,97,0.00,,,0.01,,2013-02-03 17:41:00,
2013-02-03 09:52:00,45.0,44.0,30.25,SSW,209,1.0,3.0,97,0.00,,,0.01,,2013-02-03 17:52:00,
2013-02-03 10:02:00,45.0,44.0,30.25,SW,219,1.0,2.0,96,0.00,,,0.01,,2013-02-03 18:02:00,
2013-02-03 10:11:00,45.0,44.0,30.25,SW,219,1.0,2.0,96,0.00,,,0.01,,2013-02-03 18:11:00,
2013-02-03 10:23:00,46.0,45.0,30.25,SSW,211,1.0,2.0,95,0.00,,,0.01,,2013-02-03 18:23:00,
2013-02-03 10:32:00,47.0,45.0,30.24,SE,128,2.0,3.0,91,0.00,,,0.01,,2013-02-03 18:32:00,
2013-02-03 10:41:00,47.0,45.0,30.24,SE,128,2.0,3.0,91,0.00,,,0.01,,2013-02-03 18:41:00,
2013-02-03 10:52:00,48.0,45.0,30.23,SSE,152,2.0,5.0,89,0.00,,,0.01,,2013-02-03 18:52:00,
2013-02-03 11:01:00,50.0,46.0,30.23,SE,130,2.0,5.0,86,0.00,,,0.01,,2013-02-03 19:01:00,
2013-02-03 11:11:00,50.0,46.0,30.23,SE,130,2.0,5.0,86,0.00,,,0.01,,2013-02-03 19:11:00,
2013-02-03 11:21:00,51.0,47.0,30.22,SSW,194,2.0,6.0,85,0.00,,,0.01,,2013-02-03 19:21:00,
2013-02-03 11:31:00,53.0,48.0,30.22,SSW,213,1.0,3.0,82,0.00,,,0.01,,2013-02-03 19:31:00,
2013-02-03 11:41:00,53.0,48.0,30.22,SSW,213,1.0,3.0,82,0.00,,,0.01,,2013-02-03 19:41:00,
2013-02-03 11:52:00,54.0,48.0,30.22,SSE,150,2.0,5.0,79,0.00,,,0.01,,2013-02-03 19:52:00,
2013-02-03 12:01:00,55.0,48.0,30.22,SSE,155,2.0,5.0,77,0.00,,,0.01,,2013-02-03 20:01:00,
2013-02-03 12:11:00,55.0,48.0,30.22,SSE,155,2.0,5.0,77,0.00,,,0.01,,2013-02-03 20:11:00,
2013-02-03 12:21:00,56.0,47.0,30.20,SW,220,3.0,4.0,73,0.00,,,0.01,,2013-02-03 20:21:00,
2013-02-03 12:32:00,57.0,48.0,30.20,SSE,167,2.0,4.0,71,0.00,,,0.01,,2013-02-03 20:32:00,
2013-02-03 12:42:00,57.0,48.0,30.20,SSE,167,2.0,4.0,71,0.00,,,0.01,,2013-02-03 20:42:00,
2013-02-03 12:52:00,58.0,49.0,30.20,South,172,2.0,7.0,72,0.00,,,0.01,,2013-02-03 20:52:00,
2013-02-03 13:02:00,57.0,48.0,30.19,SSW,198,2.0,6.0,71,0.00,,,0.01,,2013-02-03 21:02:00,
2013-02-03 13:11:00,57.0,48.0,30.19,SSW,198,2.0,6.0,71,0.00,,,0.01,,2013-02-03 21:11:00,
2013-02-03 13:21:00,58.0,47.0,30.19,SSW,206,2.0,7.0,68,0.00,,,0.01,,2013-02-03 21:21:00,
2013-02-03 13:32:00,59.0,49.0,30.19,WSW,246,2.0,5.0,70,0.00,,,0.01,,2013-02-03 21:32:00,
2013-02-03 13:42:00,59.0,49.0,30.19,WSW,246,2.0,5.0,70,0.00,,,0.01,,2013-02-03 21:42:00,
2013-02-03 13:52:00,60.0,48.0,30.18,SSW,193,2.0,5.0,64,0.00,,,0.01,,2013-02-03 21:52:00,
2013-02-03 14:01:00,60.0,48.0,30.16,WSW,254,3.0,5.0,65,0.00,,,0.01,,2013-02-03 22:01:00,
2013-02-03 14:11:00,60.0,48.0,30.16,WSW,254,3.0,5.0,65,0.00,,,0.01,,2013-02-03 22:11:00,
2013-02-03 14:21:00,60.0,49.0,30.16,West,266,1.0,6.0,67,0.00,,,0.01,,2013-02-03 22:21:00,
2013-02-03 14:31:00,60.0,48.0,30.16,East,99,3.0,5.0,64,0.00,,,0.01,,2013-02-03 22:31:00,
2013-02-03 14:41:00,60.0,48.0,30.16,East,99,3.0,5.0,64,0.00,,,0.01,,2013-02-03 22:41:00,
2013-02-03 14:52:00,59.0,48.0,30.16,SSE,167,3.0,6.0,66,0.00,,,0.01,,2013-02-03 22:52:00,
2013-02-03 15:01:00,59.0,48.0,30.16,SSW,194,3.0,6.0,67,0.00,,,0.01,,2013-02-03 23:01:00,
2013-02-03 15:11:00,59.0,48.0,30.16,SSW,194,3.0,6.0,67,0.00,,,0.01,,2013-02-03 23:11:00,
2013-02-03 15:21:00,59.0,48.0,30.16,SSW,207,3.0,6.0,66,0.00,,,0.01,,2013-02-03 23:21:00,
2013-02-03 15:32:00,59.0,48.0,30.15,SSE,153,2.0,5.0,66,0.00,,,0.01,,2013-02-03 23:32:00,
2013-02-03 15:41:00,59.0,48.0,30.15,SSE,153,2.0,5.0,66,0.00,,,0.01,,2013-02-03 23:41:00,
2013-02-03 15:52:00,59.0,47.0,30.15,SSE,159,2.0,5.0,64,0.00,,,0.01,,2013-02-03 23:52:00,
2013-02-03 16:01:00,59.0,46.0,30.15,South,172,2.0,4.0,62,0.00,,,0.01,,2013-02-04 00:01:00,
2013-02-03 16:11:00,59.0,46.0,30.15,South,172,2.0,4.0,62,0.00,,,0.01,,2013-02-04 00:11:00,
2013-02-03 16:21:00,60.0,47.0,30.15,SW,222,1.0,4.0,62,0.00,,,0.01,,2013-02-04 00:21:00,
2013-02-03 16:31:00,60.0,48.0,30.14,South,187,1.0,4.0,64,0.00,,,0.01,,2013-02-04 00:31:00,
2013-02-03 16:41:00,60.0,48.0,30.14,South,187,1.0,4.0,64,0.00,,,0.01,,2013-02-04 00:41:00,
2013-02-03 16:52:00,59.0,48.0,30.14,SSW,201,2.0,3.0,66,0.00,,,0.01,,2013-02-04 00:52:00,
2013-02-03 17:01:00,58.0,47.0,30.14,South,170,2.0,3.0,68,0.00,,,0.01,,2013-02-04 01:01:00,
2013-02-03 17:11:00,58.0,47.0,30.14,South,170,2.0,3.0,68,0.00,,,0.01,,2013-02-04 01:11:00,
2013-02-03 17:21:00,57.0,47.0,30.15,SSW,212,0.0,2.0,70,0.00,,,0.01,,2013-02-04 01:21:00,
2013-02-03 17:31:00,56.0,47.0,30.14,SSW,206,0.0,3.0,73,0.00,,,0.01,,2013-02-04 01:31:00,
2013-02-03 17:41:00,56.0,47.0,30.14,SSW,206,0.0,3.0,73,0.00,,,0.01,,2013-02-04 01:41:00,
2013-02-03 17:52:00,55.0,47.0,30.14,SSW,206,0.0,0.0,75,0.00,,,0.01,,2013-02-04 01:52:00,
2013-02-03 18:01:00,54.0,47.0,30.14,SSW,206,0.0,1.0,77,0.00,,,0.01,,2013-02-04 02:01:00,
2013-02-03 18:11:00,54.0,47.0,30.14,SSW,206,0.0,1.0,77,0.00,,,0.01,,2013-02-04 02:11:00,
2013-02-03 18:21:00,53.0,47.0,30.15,WSW,250,1.0,2.0,80,0.00,,,0.01,,2013-02-04 02:21:00,
2013-02-03 18:31:00,52.0,47.0,30.15,WSW,250,1.0,1.0,82,0.00,,,0.01,,2013-02-04 02:31:00,
2013-02-03 18:41:00,52.0,47.0,30.15,WSW,250,1.0,1.0,82,0.00,,,0.01,,2013-02-04 02:41:00,
2013-02-03 18:52:00,51.0,46.0,30.15,WSW,250,0.0,0.0,82,0.00,,,0.01,,2013-02-04 02:52:00,
2013-02-03 19:01:00,50.0,45.0,30.15,WSW,250,0.0,0.0,83,0.00,,,0.01,,2013-02-04 03:01:00,
2013-02-03 19:11:00,50.0,45.0,30.15,WSW,250,0.0,0.0,83,0.00,,,0.01,,2013-02-04 03:11:00,
2013-02-03 19:21:00,50.0,46.0,30.15,WSW,250,0.0,1.0,85,0.00,,,0.01,,2013-02-04 03:21:00,
2013-02-03 19:31:00,50.0,46.0,30.15,WSW,250,1.0,2.0,86,0.00,,,0.01,,2013-02-04 03:31:00,
2013-02-03 19:41:00,50.0,46.0,30.15,WSW,250,1.0,2.0,86,0.00,,,0.01,,2013-02-04 03:41:00,
2013-02-03 19:52:00,50.0,46.0,30.14,WSW,250,1.0,1.0,86,0.00,,,0.01,,2013-02-04 03:52:00,
2013-02-03 20:01:00,50.0,46.0,30.14,WSW,250,0.0,1.0,86,0.00,,,0.01,,2013-02-04 04:01:00,
2013-02-03 20:11:00,50.0,46.0,30.14,WSW,250,0.0,1.0,86,0.00,,,0.01,,2013-02-04 04:11:00,
2013-02-03 20:21:00,49.0,45.0,30.15,WSW,250,1.0,1.0,86,0.00,,,0.01,,2013-02-04 04:21:00,
2013-02-03 20:31:00,49.0,45.0,30.15,WSW,250,0.0,1.0,87,0.00,,,0.01,,2013-02-04 04:31:00,
2013-02-03 20:41:00,49.0,45.0,30.15,WSW,250,0.0,1.0,87,0.00,,,0.01,,2013-02-04 04:41:00,
2013-02-03 20:52:00,49.0,45.0,30.15,WSW,250,0.0,1.0,87,0.00,,,0.01,,2013-02-04 04:52:00,
2013-02-03 21:03:00,49.0,46.0,30.15,WSW,250,0.0,1.0,88,0.00,,,0.01,,2013-02-04 05:03:00,
2013-02-03 21:11:00,49.0,46.0,30.15,WSW,250,0.0,1.0,88,0.00,,,0.01,,2013-02-04 05:11:00,
2013-02-03 21:22:00,49.0,46.0,30.15,WSW,250,0.0,0.0,88,0.00,,,0.01,,2013-02-04 05:22:00,
2013-02-03 21:33:00,49.0,46.0,30.16,WSW,250,0.0,1.0,89,0.00,,,0.01,,2013-02-04 05:33:00,
2013-02-03 21:41:00,49.0,46.0,30.16,WSW,250,0.0,1.0,89,0.00,,,0.01,,2013-02-04 05:41:00,
2013-02-03 21:52:00,49.0,46.0,30.16,WSW,250,0.0,1.0,89,0.00,,,0.01,,2013-02-04 05:52:00,
2013-02-03 22:01:00,49.0,46.0,30.16,WSW,250,0.0,0.0,88,0.00,,,0.01,,2013-02-04 06:01:00,
2013-02-03 22:11:00,49.0,46.0,30.16,WSW,250,0.0,0.0,88,0.00,,,0.01,,2013-02-04 06:11:00,
2013-02-03 22:21:00,48.0,45.0,30.16,WSW,250,0.0,1.0,89,0.00,,,0.01,,2013-02-04 06:21:00,
2013-02-03 22:31:00,48.0,45.0,30.16,WSW,250,0.0,1.0,90,0.00,,,0.01,,2013-02-04 06:31:00,
2013-02-03 22:41:00,48.0,45.0,30.16,WSW,250,0.0,1.0,90,0.00,,,0.01,,2013-02-04 06:41:00,
2013-02-03 22:52:00,48.0,45.0,30.16,WSW,250,0.0,1.0,90,0.00,,,0.01,,2013-02-04 06:52:00,
2013-02-03 23:01:00,47.0,44.0,30.16,WSW,250,0.0,0.0,90,0.00,,,0.01,,2013-02-04 07:01:00,
2013-02-03 23:11:00,47.0,44.0,30.16,WSW,250,0.0,0.0,90,0.00,,,0.01,,2013-02-04 07:11:00,
2013-02-03 23:21:00,47.0,45.0,30.15,WSW,250,0.0,1.0,91,0.00,,,0.01,,2013-02-04 07:21:00,
2013-02-03 23:31:00,47.0,45.0,30.15,WSW,250,0.0,0.0,91,0.00,,,0.01,,2013-02-04 07:31:00,
2013-02-03 23:41:00,47.0,45.0,30.15,WSW,250,0.0,0.0,91,0.00,,,0.01,,2013-02-04 07:41:00,
2013-02-03 23:52:00,47.0,45.0,30.15,WSW,250,0.0,1.0,92,0.00,,,0.01,,2013-02-04 07:52:00,